Weather History for Estherville, IA

Change the Weather History Date:

Thursday, November 24, 2011

  Actual Average Record
Temperature  
Mean Temperature 47 °F 28 °F  
Max Temperature 63 °F 37 °F 63 °F (2011)
Min Temperature 30 °F 19 °F -8 °F (1985)
Degree Days  
Heating Degree Days 18 37  
Month to date heating degree days 668 736  
Since 1 July heating degree days 1292 1485  
Cooling Degree Days 0 0  
Month to date cooling degree days 0 0  
Year to date cooling degree days 767 593  
Moisture  
Dew Point 36 °F    
Average Humidity 72    
Maximum Humidity 100    
Minimum Humidity 43    
Precipitation  
Precipitation 0.00 in 0.05 in 0.90 in (2001)
Month to date precipitation 0.05 1.36  
Year to date precipitation 19.02  
Sea Level Pressure  
Sea Level Pressure 29.86 in    
Wind  
Wind Speed 15 mph (South)    
Max Wind Speed 29 mph    
Max Gust Speed 35 mph    
Visibility 7 miles    
Events      
T = Trace of Precipitation, MM = Missing Value Source: NWS Daily Summary

Daily Weather History Graph

Daily Weather History Graph

Search for Another Location

Airport:

Trip Planner

Search our weather history database for the weather conditions in past years. The results will help you decide how hot, cold, wet, or windy it might be!

Date:

Astronomy

Nov. 24, 2011 Rise Set
Actual Time 7:23 AM CST 4:47 PM CST
Civil Twilight 6:51 AM CST 5:19 PM CST
Nautical Twilight 6:16 AM CST 5:54 PM CST
Astronomical Twilight 5:42 AM CST 6:28 PM CST
Moon 6:42 AM CST (11/24) 4:18 PM CST (11/24)
Length of Visible Light 10h 27m
Length of Day
9h 24m
Waning Crescent, 0% of the Moon is Illuminated
Nov 24
Waning Crescent
Nov 25
New
Dec 2
First Quarter
Dec 10
Full
Dec 17
Last Quarter

Hourly Weather History & Observations

Time (CST) Temp. Windchill Dew Point Humidity Pressure Visibility Wind Dir Wind Speed Gust Speed Precip Events Conditions
12:52 AM 30.0 °F 21.1 °F 30.0 °F 100% 30.04 in 3.0 mi South 10.4 mph - N/A   Clear
1:22 AM 30.2 °F 21.9 °F 30.2 °F 100% 29.98 in 2.5 mi South 9.2 mph - N/A   Clear
1:52 AM 30.0 °F 22.4 °F 28.9 °F 96% 30.01 in 2.5 mi South 8.1 mph - N/A   Clear
2:39 AM 30.2 °F 21.3 °F 30.2 °F 100% 29.96 in 3.0 mi South 10.4 mph - N/A   Clear
2:52 AM 30.0 °F 21.1 °F 28.9 °F 96% 29.99 in 3.0 mi South 10.4 mph - N/A   Clear
4:52 AM 30.9 °F 20.2 °F 30.0 °F 96% 29.96 in 3.0 mi South 15.0 mph - N/A   Clear
5:52 AM 30.9 °F 20.7 °F 30.0 °F 96% 29.95 in 4.0 mi South 13.8 mph - N/A   Clear
7:52 AM 30.9 °F 21.7 °F 28.9 °F 92% 29.95 in 3.0 mi South 11.5 mph - N/A   Clear
8:52 AM 36.0 °F 27.1 °F 33.1 °F 89% 29.94 in 5.0 mi South 13.8 mph - N/A   Clear
9:52 AM 39.9 °F 31.8 °F 37.0 °F 89% 29.91 in 6.0 mi South 15.0 mph - N/A   Clear
10:52 AM 51.1 °F - 42.1 °F 71% 29.88 in 10.0 mi SSW 16.1 mph - N/A   Clear
11:52 AM 57.0 °F - 43.0 °F 59% 29.85 in 10.0 mi South 20.7 mph 26.5 mph N/A   Clear
12:52 PM 59.0 °F - 43.0 °F 55% 29.81 in 10.0 mi South 19.6 mph 28.8 mph N/A   Clear
1:52 PM 60.1 °F - 41.0 °F 49% 29.79 in 10.0 mi South 21.9 mph 31.1 mph N/A   Clear
2:52 PM 63.0 °F - 39.9 °F 43% 29.77 in 10.0 mi SSW 26.5 mph 33.4 mph N/A   Clear
3:52 PM 62.1 °F - 39.9 °F 44% 29.77 in 10.0 mi SSW 19.6 mph 29.9 mph N/A   Clear
4:52 PM 59.0 °F - 39.9 °F 49% 29.78 in 10.0 mi SSW 16.1 mph - N/A   Clear
5:52 PM 54.0 °F - 39.0 °F 57% 29.78 in 10.0 mi SSW 12.7 mph - N/A   Clear
6:52 PM 53.1 °F - 39.9 °F 61% 29.77 in 10.0 mi South 16.1 mph - N/A   Clear
7:52 PM 51.1 °F - 39.0 °F 63% 29.77 in 10.0 mi South 13.8 mph - N/A   Clear
8:52 PM 48.9 °F - 39.0 °F 69% 29.75 in 10.0 mi South 12.7 mph - N/A   Clear
9:52 PM 48.0 °F - 37.9 °F 68% 29.75 in 10.0 mi SSW 12.7 mph - N/A   Clear
11:52 PM 44.1 °F 38.6 °F 37.0 °F 76% 29.72 in 10.0 mi South 10.4 mph - N/A   Clear